Regional Weather Roundup
Issued by NWS

Home | Current Version | Previous Version | Graphics & Text | Print | Product List | Glossary On
Versions: 1 2 3 4 5 6 7 8 9 10 11 12 13 14 15 16 17 18 19 20 21 22 23 24 25 26 27 28 29 30 31 32 33 34 35 36 37 38 39 40 41 42 43 44 45 46 47 48 49 50
000
ASUS45 KBOI 200210
RWRID
WEATHER ROUNDUP FOR IDAHO
NATIONAL WEATHER SERVICE BOISE ID
800 PM MDT SUN OCT 19 2014

NOTE: "FAIR" INDICATES FEW OR NO CLOUDS BELOW 12000 FEET
WITH NO SIGNIFICANT WEATHER AND/OR OBSTRUCTIONS TO VISIBILITY

IDZ012-014-200300-
SOUTHWEST IDAHO


CITY           SKY/WX    TMP DP  RH WIND       PRES   REMARKS
BOISE          CLEAR     65  38  36 CALM      29.87S
CALDWELL       CLEAR     61  36  39 NW3       29.88S
MOUNTAIN HOME  CLEAR     61  34  36 E7        29.87S
$$

IDZ016-017-200300-
SOUTHCENTRAL IDAHO


CITY           SKY/WX    TMP DP  RH WIND       PRES   REMARKS
BURLEY         CLEAR     58  35  42 E7        29.97R
JEROME         LGT RAIN  66  28  24 E15       29.95S
TWIN FALLS     CLEAR     59  36  42 SE7       29.95S
$$

IDZ019>023-200300-
SOUTHEAST IDAHO


CITY           SKY/WX    TMP DP  RH WIND       PRES   REMARKS
IDAHO FALLS    CLEAR     54  33  45 NE3       30.06R
POCATELLO      CLEAR     50  33  52 S6        30.04R
REXBURG        CLEAR     51  34  52 E5        30.07R
$$

IDZ006-010-011-018-031-032-200300-
CENTRAL IDAHO MOUNTAINS


CITY           SKY/WX    TMP DP  RH WIND       PRES   REMARKS
MCCALL         CLEAR     52  34  50 NE6       29.96S
HAILEY         CLEAR     54  32  43 NW7       30.07R
STANLEY          N/A     44  25  47 SE6       30.09R
SALMON         NOT AVBL
CHALLIS        CLEAR     54  32  43 CALM      30.01R
$$

IDZ002-004-006-007-026-200300-
NORTHERN IDAHO


CITY           SKY/WX    TMP DP  RH WIND       PRES   REMARKS
LEWISTON       MOCLDY    69  44  40 CALM      29.75F
LOWELL           N/A     52  50  93 N5        29.86R
COEUR D`ALENE  MOCLDY    57  48  72 NE10      29.82S
MULLAN PASS    PTCLDY    51  35  54 S7        29.99F
$$


USA.gov is the U.S. government's official web portal to all federal, state and local government web resources and services.